< < Back
Terminal Aerodrome Forecast


Current Version              Previous Versions:   1  2  3  4  5  6  7  8  9  

Terminal Aerodrome Forecast

978
FTUS42 KMLB 281100
TAFDAB
TAF
KDAB 281124Z 2812/2912 24006KT P6SM FEW030 SCT250
     FM281500 26011KT P6SM SCT035 SCT250
     FM290100 26006KT P6SM FEW040 SCT250=



Latest METAR

162
SAUS80 KWBC 290000 RRA
MTRDAB
METAR KDAB 282353Z 24008KT 10SM FEW040 BKN140 BKN250 31/24 A2995 RMK AO2
SLP140 T03060239 10339 20306 55002


USA.gov is the U.S. government's official web portal to all federal, state and local government web resources and services.